SCP
0 0 0 -0 -0 -0 0 0 0 0 0 0 0 0 0 0 0 0 0 0 0 -0 -0 0 -0 -0 -0 -0 -0 -0 -0 -0 -0 -0 -0 -0 -0 -0 -0 -0 -0 0 0 0 -0 -0 0 0 0
0 0 0 -0 -0 -0 -0 -0 0 0 0 -0 0 0 0 0 0 -0 0 -0 -0 -0 -0 0 -0 -0 -0 -0 -0 -0 -0 -0 -0 -0 -0 -0 -0 -0 -0 -0 -0 0 -0 -0 -0 -0 0 0 0
0 0 -0 -0 0 0 0 -0 0 0 0 0 0 0 0 0 0 0 -0 -0 -0 -0 -0 0 0 0 -0 -0 -0 -0 0 -0 -0 -0 0 -0 -0 -0 0 -0 -0 -0 -0 -0 -0 -0 0 0 0
0 0 -0 -0 0 0 0 -0 -0 -0 0 0 -0 0 0 0 -0 0 -0 -0 -0 -0 0 0 0 -0 -0 -0 -0 0 -0 -0 0 0 0 -0 0 0 -0 -0 -0 -0 0 0 0 0 0 0 0
0 -0 -0 0 0 0 0 0 -0 0 0 0 0 0 0 0 0 -0 -0 -0 -0 -0 0 0 0 0 0 0 -0 -0 -0 -0 0 0 -0 -0 -0 0 -0 -0 0 0 0 0 0 0 0 0 0
-0 -0 -0 -0 0 0 0 0 -0 0 0 0 0 -0 0 0 0 0 -0 -0 -0 0 0 0 0 0 0 -0 -0 -0 0 0 0 -0 -0 -0 0 0 -0 -0 0 0 0 0 0 0 0 0 0
-0 -0 -0 -0 0 0 0 0 0 0 0 0 0 0 0 0 0 0 0 0 0 0 0 0 0 0 -0 -0 -0 0 -0 -0 0 -0 0 0 0 0 0 0 0 0 0 0 0 0 0 0 0
-0 -0 -0 -0 0 -0 -0 0 -0 0 0 0 0 0 0 0 0 0 0 0 0 0 0 0 0 0 0 -0 -0 -0 0 0 0 0 0 0 0 0 0 0 0 0 0 0 0 0 0 0 0
0 -0 -0 -0 -0 0 -0 0 0 0 0 0 0 0 0 0 0 0 0 0 0 0 0 0 0 -0 -0 -0 -0 0 0 0 0 0 0 0 0 0 0 0 0 0 0 0 0 0 0 0 0
0 -0 -0 -0 -0 0 0 0 0 0 0 0 0 0 0 0 0 0 0 0 0 0 0 0 0 0 0 -0 -0 0 0 0 0 0 0 0 0 0 0 0 0 0 0 0 0 0 0 0 0
0 -0 0 0 0 0 0 0 0 0 0 0 0 -0 0 0 0 0 0 0 -0 0 0 0 -0 -0 0 0 -0 0 0 0 0 0 0 0 0 0 0 0 0 0 0 0 0 0 0 0 0
0 0 0 0 0 0 0 0 0 0 0 0 0 0 0 0 0 0 0 -0 0 -0 -0 -0 -0 -0 0 0 0 0 0 0 0 0 0 0 0 0 0 0 0 0 0 0 0 0 0 0 0
0 0 0 0 0 0 0 0 0 0 0 0 0 0 0 0 -0 0 0 -0 -0 -0 -0 -0 -0 0 0 0 0 0 0 0 0 0 0 0 0 0 0 0 0 0 0 0 0 0 0 0 0
0 0 0 0 0 0 0 0 0 0 0 0 0 0 0 0 0 0 0 -0 0 0 0 0 0 0 0 0 0 0 0 0 0 0 0 0 0 0 0 0 0 0 0 0 0 0 0 0 0
0 0 0 0 0 0 0 0 0 0 0 0 0 0 0 0 0 0 0 0 0 0 0 0 0 0 0 0 0 0 0 0 0 0 0 0 0 0 0 0 0 0 0 0 0 0 0 0 0
0 0 0 0 0 0 0 0 0 0 0 0 0 0 0 -0 -0 -0 0 0 0 0 0 0 0 0 0 0 0 0 0 0 0 0 0 0 0 0 0 0 0 0 0 0 0 0 0 0 0
0 0 0 0 0 0 0 0 0 0 0 -0 -0 -0 -0 -0 -0 0 0 0 0 0 0 0 0 0 0 0 0 0 0 0 0 0 0 0 0 0 0 0 0 0 0 0 0 0 0 0 0
0 0 0 0 0 0 0 -0 0 0 -0 -0 -0 -0 -0 -0 -0 0 0 0 0 0 0 0 0 0 0 0 0 0 0 0 0 0 0 0 0 0 0 0 0 0 0 0 0 0 0 0 0
0 0 0 0 0 0 0 -0 0 0 0 -0 -0 -0 -0 -0 0 0 0 0 0 0 0 0 0 0 0 0 0 0 0 0 0 0 0 0 0 0 0 0 0 0 0 0 0 0 0 0 0
0 0 0 0 0 0 0 0 0 0 0 0 0 -0 0 0 0 0 0 0 0 0 0 0 0 0 0 0 0 0 0 0 0 0 0 0 0 0 0 0 0 0 0 0 0 0 0 0 0
0 0 0 0 0 0 0 0 0 0 0 0 0 0 0 0 0 0 0 0 0 0 0 0 0 0 0 0 0 0 0 0 0 0 0 0 0 0 0 0 0 0 0 0 0 0 0 0 0
0 0 0 0 0 0 0 0 0 0 0 0 0 0 0 0 0 0 0 0 0 0 0 0 0 0 0 0 0 0 0 0 0 0 0 0 0 0 0 0 0 0 0 0 0 0 0 0 0
0 0 0 0 0 0 0 0 0 0 0 -0 0 0 0 0 0 0 0 0 0 0 0 0 0 0 0 0 0 0 0 0 0 0 0 0 0 0 0 0 0 0 0 0 0 0 0 0 0
0 0 0 0 0 0 0 0 0 0 0 0 0 0 0 0 0 0 0 0 0 0 0 0 0 0 0 0 0 0 0 0 0 0 0 0 0 0 0 0 0 0 0 0 0 0 0 0 0
0 0 0 0 0 0 0 0 0 0 0 0 0 0 0 0 0 0 0 0 0 0 0 0 0 0 0 0 0 0 0 0 0 0 0 0 0 0 0 0 0 0 0 0 0 0 0 0 0
0 0 0 0 0 0 0 0 0 0 0 0 0 0 0 0 0 0 0 0 0 0 0 0 0 0 0 0 0 0 0 0 0 0 0 0 0 0 0 0 0 0 0 0 0 0 0 0 0
0 0 0 0 0 0 0 0 0 0 0 0 0 0 0 0 0 0 0 0 0 0 0 0 0 0 0 0 0 0 0 0 0 0 0 0 0 0 0 0 0 0 0 0 0 0 0 0 0
0 0 0 0 0 0 0 0 0 0 0 0 0 0 0 0 0 0 0 0 0 0 0 0 0 0 0 0 0 0 0 0 0 0 0 0 0 0 0 0 0 0 0 0 0 0 0 0 0
0 0 0 0 0 0 0 0 0 0 0 0 0 0 0 0 0 0 0 0 0 0 0 0 0 0 0 0 0 0 0 0 0 0 0 0 0 0 0 0 0 0 0 0 0 0 0 0 0
0 0 0 0 0 0 0 0 0 0 0 0 0 0 0 0 0 0 0 0 0 0 0 0 0 0 0 0 0 0 0 0 0 0 0 0 0 0 0 0 0 0 0 0 0 0 0 0 0
Wind_Speed_500mb
6 2 1 4 8 10 2 3 1 4 2 4 11 9 14 12 4 5 13 5 7 15 21 21 16 14 14 17 15 17 19 20 23 25 26 28 31 33 35 36 39 42 45 43 34 29 32 32 37
3 1 3 7 9 6 5 2 4 3 15 20 13 12 12 6 6 16 10 5 9 15 20 16 14 14 14 13 14 20 18 17 24 25 25 28 30 33 35 36 39 41 30 32 27 31 32 31 34
1 1 4 8 7 5 4 5 7 8 22 4 8 13 7 6 14 10 11 7 13 19 15 12 13 14 13 16 17 15 19 19 21 20 22 27 30 31 37 35 44 30 30 25 28 28 24 31 34
3 1 10 8 6 3 1 6 11 15 5 7 13 13 11 10 10 8 7 9 11 14 14 11 14 17 16 15 13 14 16 20 13 18 19 25 28 32 34 33 34 21 21 33 30 29 29 26 27
1 5 8 7 3 0 2 11 14 6 4 6 5 10 8 12 9 12 6 8 12 13 11 13 11 13 14 12 14 12 11 11 16 14 21 21 31 32 33 30 29 25 31 29 32 34 30 27 25
2 6 8 4 2 6 4 15 11 5 8 7 7 13 7 15 15 11 5 5 9 10 12 10 12 15 13 16 16 15 15 13 16 23 23 24 26 31 34 33 27 26 31 33 36 35 33 32 30
8 7 7 7 3 6 8 18 10 6 5 5 11 7 9 22 18 11 5 3 7 9 11 11 10 14 15 15 17 16 12 17 23 22 24 26 27 28 34 29 25 26 28 34 34 35 30 28 27
6 10 7 2 8 6 9 15 10 6 4 9 3 7 7 29 24 16 7 2 9 9 8 11 14 14 15 16 17 15 18 20 19 22 26 28 26 24 32 27 32 29 32 33 33 31 31 31 32
4 8 5 13 12 6 14 7 8 6 12 8 5 4 4 30 26 18 10 4 6 8 11 13 12 12 14 14 15 19 17 18 21 24 26 29 28 25 27 32 30 32 31 29 31 33 35 37 36
8 7 16 12 10 7 19 7 17 8 6 8 7 8 13 28 25 17 11 5 3 8 9 10 10 11 12 14 15 14 14 18 21 23 26 27 29 29 30 32 31 31 29 30 32 36 37 36 41
5 6 9 4 7 16 18 7 10 13 6 14 12 19 26 30 25 19 14 7 2 4 6 8 6 8 11 13 12 12 15 17 19 22 25 25 27 29 29 29 30 29 29 31 33 34 37 41 44
10 6 4 8 8 16 20 15 6 15 5 5 14 16 29 30 25 19 15 8 3 1 3 4 2 4 8 10 10 11 13 15 17 20 22 23 24 24 25 24 27 27 29 30 32 36 40 42 45
8 4 11 12 13 14 14 6 5 14 16 8 13 23 28 26 23 20 18 14 8 5 2 1 1 1 4 8 8 9 11 14 15 18 20 22 21 19 20 21 23 25 28 30 33 35 36 40 42
10 16 11 8 10 7 6 2 2 9 18 16 18 28 28 27 25 24 22 17 12 8 4 4 3 3 3 5 5 7 10 12 14 15 18 19 19 17 18 19 20 23 25 29 30 33 34 37 37
23 10 6 4 3 3 4 8 13 15 21 22 26 31 32 29 30 23 16 16 14 10 8 7 5 4 2 3 4 6 9 12 12 14 17 17 17 16 16 16 18 20 22 23 28 30 30 32 34
10 11 6 4 6 1 7 16 1 17 25 28 30 32 32 34 30 25 24 22 17 14 12 10 8 5 4 2 3 6 8 11 11 13 15 15 16 15 14 14 16 19 19 19 24 25 26 28 30
14 7 6 8 12 3 7 14 2 13 26 30 33 35 36 36 37 34 30 24 18 18 15 14 11 8 6 3 4 6 7 9 10 12 13 13 14 14 13 12 14 17 16 16 19 21 23 24 27
13 7 5 9 5 1 4 20 12 12 27 34 35 37 38 39 38 33 34 30 25 23 21 19 15 11 9 7 6 7 8 9 10 11 12 12 12 13 12 11 12 15 13 12 15 19 22 22 23
14 10 10 4 0 6 12 17 21 21 28 36 41 41 42 42 34 36 38 34 32 30 26 22 16 13 10 7 6 7 7 9 10 10 11 12 12 12 12 10 10 12 12 10 14 18 21 21 23
12 10 8 3 1 5 5 22 22 18 28 54 53 49 42 42 40 43 46 44 38 30 26 25 20 17 15 14 10 8 9 9 10 11 11 11 11 10 10 10 9 9 10 11 14 16 21 22 21
7 13 10 4 3 2 9 17 12 7 20 36 49 53 49 46 47 49 53 51 43 37 28 23 21 19 20 16 11 9 10 10 11 11 10 10 10 10 9 9 8 7 10 10 12 16 20 21 21
11 9 13 14 8 6 4 9 12 8 14 16 36 45 46 46 46 48 53 53 47 37 29 25 24 23 21 18 14 11 11 11 11 10 9 9 9 9 8 9 8 8 9 9 11 14 16 16 18
8 13 13 8 8 5 1 5 15 4 14 18 31 33 41 42 45 48 53 50 45 40 33 27 26 26 24 20 17 15 14 14 12 11 10 9 9 8 8 8 8 8 8 8 11 13 16 17 18
19 14 15 10 6 4 10 11 12 10 13 5 10 28 35 38 40 42 46 50 48 45 39 32 28 27 26 23 20 19 16 13 12 12 10 9 9 8 7 7 7 7 7 9 11 14 16 18 19
9 15 5 5 3 11 4 5 18 10 11 8 21 37 36 32 31 37 45 56 57 52 43 35 31 29 28 25 22 21 18 15 15 14 12 11 10 9 8 7 6 6 6 8 11 13 13 18 17
15 15 12 15 10 7 4 14 14 8 10 14 15 34 34 30 29 31 36 47 57 52 43 35 31 30 30 26 23 22 20 18 18 17 15 14 12 10 8 6 6 5 5 7 10 9 11 14 14
14 12 9 14 5 7 9 15 18 8 10 10 16 35 35 29 27 31 37 42 52 50 41 32 30 31 30 27 24 23 21 19 19 19 18 16 13 11 9 8 6 5 5 7 8 7 8 11 12
6 14 6 5 8 7 8 11 13 11 21 16 19 36 33 28 26 31 36 43 48 43 36 33 30 28 27 26 24 22 21 21 21 20 18 17 15 13 11 9 8 6 5 6 6 7 6 9 10
7 7 3 9 9 11 7 13 15 18 17 24 30 40 37 33 29 31 35 39 42 41 38 35 33 32 30 27 25 24 22 21 20 19 19 18 16 15 14 12 10 8 7 6 5 5 4 7 7
0 13 13 10 11 6 3 12 5 9 14 42 48 43 36 32 31 30 34 39 43 42 41 37 34 31 30 27 25 24 23 21 20 19 18 17 17 17 16 14 12 11 10 7 5 4 3 3 5
Wind_Direction_500mb
349 350 64 345 50 65 70 112 288 119 77 34 86 90 111 70 48 165 147 115 352 341 336 333 347 20 20 36 26 36 49 55 50 47 55 58 54 53 58 59 60 53 49 56 62 56 54 55 54
343 34 121 75 83 76 275 274 136 186 136 111 79 75 51 72 68 132 128 77 357 345 344 340 5 31 31 37 31 40 48 60 54 48 52 60 58 65 64 61 62 60 69 59 50 60 58 51 66
340 17 78 88 103 116 173 189 152 139 142 48 101 76 88 92 120 132 111 49 359 351 344 8 21 45 42 45 46 46 54 40 56 55 51 66 64 66 66 63 70 70 60 53 50 43 57 59 61
258 107 65 78 68 203 30 152 147 124 197 266 133 71 91 124 138 128 85 42 357 355 357 20 36 36 40 47 51 59 56 61 45 58 59 77 69 69 66 69 74 72 62 56 46 48 66 56 57
254 72 59 71 3 272 108 153 139 135 118 134 195 148 93 134 133 124 97 21 1 2 8 23 23 40 36 28 29 51 45 49 37 39 62 75 75 73 68 75 73 65 65 60 46 61 63 59 52
64 69 65 127 352 354 115 158 143 169 144 130 110 117 122 147 145 142 93 4 8 12 29 15 31 39 21 24 39 39 37 37 49 55 64 71 80 87 72 75 79 73 62 57 60 62 58 55 50
114 79 132 130 116 2 149 153 156 157 114 53 117 84 139 169 162 162 165 33 20 33 34 28 35 37 30 25 25 35 50 64 61 66 70 73 76 86 84 76 77 70 67 59 58 57 51 46 43
131 94 103 137 175 225 147 139 143 146 135 143 89 155 183 186 178 180 165 103 35 36 43 46 42 38 32 26 26 40 54 66 74 74 75 76 81 76 74 77 61 61 63 59 55 53 51 48 45
120 67 143 183 157 223 157 129 137 149 147 170 169 143 164 179 180 181 178 116 37 33 41 47 38 40 35 26 29 44 60 73 76 78 79 82 82 80 66 66 67 66 63 60 56 56 53 49 47
79 99 192 177 178 201 162 158 159 151 158 194 185 180 161 173 181 181 170 146 40 37 45 54 44 44 39 35 44 56 74 80 81 84 83 83 82 78 73 68 64 63 61 63 61 58 52 47 48
100 147 166 169 172 169 146 153 175 154 230 222 214 184 172 176 179 183 181 180 74 28 50 56 44 44 43 40 52 68 80 84 85 86 86 85 85 81 81 72 67 66 67 64 60 54 47 46 46
88 91 93 118 135 151 156 154 192 208 233 277 219 198 185 183 184 189 187 194 188 66 67 59 45 53 49 48 63 73 81 89 89 93 94 90 84 81 81 77 76 72 71 64 56 48 45 45 46
87 126 94 109 127 130 150 153 229 241 231 242 198 186 190 187 187 191 193 205 199 208 142 86 223 110 69 64 77 85 92 94 98 97 96 94 89 83 80 77 74 68 67 59 51 46 44 47 48
125 107 95 101 117 119 154 222 224 236 219 211 195 188 192 199 199 203 203 205 209 209 187 222 210 177 108 76 92 96 99 103 99 102 103 99 95 85 75 67 66 63 63 57 47 44 45 47 49
117 75 43 73 133 79 120 282 236 241 200 200 191 191 195 200 208 211 216 213 218 215 216 226 218 207 163 91 100 103 102 106 111 114 110 108 104 93 79 67 60 61 61 54 44 42 43 43 47
79 62 122 294 152 164 113 269 330 211 204 199 195 198 206 211 214 210 212 213 218 222 225 232 227 219 212 172 129 122 122 120 127 124 118 115 109 101 86 70 60 59 59 52 41 40 40 39 43
17 184 189 312 202 135 160 267 301 203 201 206 203 207 212 213 213 209 209 212 222 226 231 236 232 227 216 198 163 143 135 133 142 140 132 124 113 105 93 78 60 59 57 50 38 34 34 34 38
178 157 229 215 228 118 232 261 266 231 211 213 213 216 219 219 219 214 209 209 217 223 225 229 229 222 213 201 178 157 156 158 162 150 142 136 123 114 102 86 69 62 56 48 39 33 28 25 26
142 139 176 234 180 177 233 270 265 248 233 233 227 225 226 226 218 213 211 212 217 218 224 229 230 224 211 204 189 181 178 179 169 164 161 150 139 123 107 92 80 68 62 51 47 37 28 19 8
127 132 202 297 47 155 353 274 263 227 231 230 228 225 225 223 216 212 211 214 219 223 224 225 223 217 210 203 203 212 201 198 182 179 176 161 145 129 115 101 84 73 68 54 53 46 36 22 15
150 162 174 173 116 82 344 293 266 251 237 240 237 235 239 231 217 210 210 214 215 216 222 226 223 217 216 217 223 230 226 214 202 194 183 168 151 138 127 109 95 79 68 56 56 54 45 38 37
158 175 129 129 111 215 61 271 289 246 263 237 238 230 229 222 216 218 215 213 215 213 214 217 218 219 221 224 223 221 215 227 223 210 195 184 169 151 138 119 102 81 69 67 63 60 55 45 40
193 131 131 120 102 76 269 67 269 359 265 246 234 228 219 214 217 218 219 218 214 209 214 214 215 218 220 222 223 215 218 231 231 221 208 196 185 169 152 131 114 98 84 82 81 74 67 58 54
149 84 48 54 83 355 226 145 273 216 220 255 193 205 199 202 211 218 220 215 210 207 210 213 217 218 219 220 222 217 225 230 232 226 219 207 198 187 169 146 121 102 96 91 82 73 70 66 61
106 106 24 7 8 218 346 97 252 236 221 222 209 193 187 190 199 208 209 206 205 206 209 212 216 219 218 220 221 222 227 227 215 218 217 209 208 199 188 165 134 117 98 92 85 75 71 71 65
180 165 154 185 190 205 92 225 247 206 236 241 236 200 188 194 202 207 206 203 202 205 209 214 217 216 215 219 222 224 226 221 211 213 215 215 213 207 201 180 162 141 128 110 93 80 70 74 68
192 196 148 106 13 77 205 281 291 204 241 219 186 180 190 198 203 202 198 199 200 203 209 214 215 212 213 219 222 222 220 219 213 214 216 217 218 215 207 198 180 173 147 119 107 93 80 74 66
150 161 84 2 134 237 246 276 238 205 221 200 190 189 186 188 190 189 189 191 194 201 206 208 208 210 214 218 219 217 216 215 216 215 216 218 218 217 211 204 197 187 161 148 137 116 97 86 72
142 182 102 128 165 161 177 251 220 213 191 189 196 191 185 183 180 180 181 184 190 197 205 207 206 208 208 210 213 214 216 218 219 219 219 218 218 217 211 209 205 199 188 182 169 138 118 94 78
141 189 161 159 210 234 161 264 155 182 189 184 193 188 182 180 178 178 180 184 191 198 204 206 207 209 207 207 210 212 215 220 223 225 224 221 220 219 217 213 209 207 207 202 199 169 137 106 96
Wind_Speed_850mb
6 2 1 4 8 10 2 3 1 4 2 4 11 9 14 12 4 5 13 5 7 15 21 21 16 14 14 17 15 17 19 20 23 25 26 28 31 33 35 36 39 42 45 43 34 29 32 32 37
3 1 3 7 9 6 5 2 4 3 15 20 13 12 12 6 6 16 10 5 9 15 20 16 14 14 14 13 14 20 18 17 24 25 25 28 30 33 35 36 39 41 30 32 27 31 32 31 34
1 1 4 8 7 5 4 5 7 8 22 4 8 13 7 6 14 10 11 7 13 19 15 12 13 14 13 16 17 15 19 19 21 20 22 27 30 31 37 35 44 30 30 25 28 28 24 31 34
3 1 10 8 6 3 1 6 11 15 5 7 13 13 11 10 10 8 7 9 11 14 14 11 14 17 16 15 13 14 16 20 13 18 19 25 28 32 34 33 34 21 21 33 30 29 29 26 27
1 5 8 7 3 0 2 11 14 6 4 6 5 10 8 12 9 12 6 8 12 13 11 13 11 13 14 12 14 12 11 11 16 14 21 21 31 32 33 30 29 25 31 29 32 34 30 27 25
2 6 8 4 2 6 4 15 11 5 8 7 7 13 7 15 15 11 5 5 9 10 12 10 12 15 13 16 16 15 15 13 16 23 23 24 26 31 34 33 27 26 31 33 36 35 33 32 30
8 7 7 7 3 6 8 18 10 6 5 5 11 7 9 22 18 11 5 3 7 9 11 11 10 14 15 15 17 16 12 17 23 22 24 26 27 28 34 29 25 26 28 34 34 35 30 28 27
6 10 7 2 8 6 9 15 10 6 4 9 3 7 7 29 24 16 7 2 9 9 8 11 14 14 15 16 17 15 18 20 19 22 26 28 26 24 32 27 32 29 32 33 33 31 31 31 32
4 8 5 13 12 6 14 7 8 6 12 8 5 4 4 30 26 18 10 4 6 8 11 13 12 12 14 14 15 19 17 18 21 24 26 29 28 25 27 32 30 32 31 29 31 33 35 37 36
8 7 16 12 10 7 19 7 17 8 6 8 7 8 13 28 25 17 11 5 3 8 9 10 10 11 12 14 15 14 14 18 21 23 26 27 29 29 30 32 31 31 29 30 32 36 37 36 41
5 6 9 4 7 16 18 7 10 13 6 14 12 19 26 30 25 19 14 7 2 4 6 8 6 8 11 13 12 12 15 17 19 22 25 25 27 29 29 29 30 29 29 31 33 34 37 41 44
10 6 4 8 8 16 20 15 6 15 5 5 14 16 29 30 25 19 15 8 3 1 3 4 2 4 8 10 10 11 13 15 17 20 22 23 24 24 25 24 27 27 29 30 32 36 40 42 45
8 4 11 12 13 14 14 6 5 14 16 8 13 23 28 26 23 20 18 14 8 5 2 1 1 1 4 8 8 9 11 14 15 18 20 22 21 19 20 21 23 25 28 30 33 35 36 40 42
10 16 11 8 10 7 6 2 2 9 18 16 18 28 28 27 25 24 22 17 12 8 4 4 3 3 3 5 5 7 10 12 14 15 18 19 19 17 18 19 20 23 25 29 30 33 34 37 37
23 10 6 4 3 3 4 8 13 15 21 22 26 31 32 29 30 23 16 16 14 10 8 7 5 4 2 3 4 6 9 12 12 14 17 17 17 16 16 16 18 20 22 23 28 30 30 32 34
10 11 6 4 6 1 7 16 1 17 25 28 30 32 32 34 30 25 24 22 17 14 12 10 8 5 4 2 3 6 8 11 11 13 15 15 16 15 14 14 16 19 19 19 24 25 26 28 30
14 7 6 8 12 3 7 14 2 13 26 30 33 35 36 36 37 34 30 24 18 18 15 14 11 8 6 3 4 6 7 9 10 12 13 13 14 14 13 12 14 17 16 16 19 21 23 24 27
13 7 5 9 5 1 4 20 12 12 27 34 35 37 38 39 38 33 34 30 25 23 21 19 15 11 9 7 6 7 8 9 10 11 12 12 12 13 12 11 12 15 13 12 15 19 22 22 23
14 10 10 4 0 6 12 17 21 21 28 36 41 41 42 42 34 36 38 34 32 30 26 22 16 13 10 7 6 7 7 9 10 10 11 12 12 12 12 10 10 12 12 10 14 18 21 21 23
12 10 8 3 1 5 5 22 22 18 28 54 53 49 42 42 40 43 46 44 38 30 26 25 20 17 15 14 10 8 9 9 10 11 11 11 11 10 10 10 9 9 10 11 14 16 21 22 21
7 13 10 4 3 2 9 17 12 7 20 36 49 53 49 46 47 49 53 51 43 37 28 23 21 19 20 16 11 9 10 10 11 11 10 10 10 10 9 9 8 7 10 10 12 16 20 21 21
11 9 13 14 8 6 4 9 12 8 14 16 36 45 46 46 46 48 53 53 47 37 29 25 24 23 21 18 14 11 11 11 11 10 9 9 9 9 8 9 8 8 9 9 11 14 16 16 18
8 13 13 8 8 5 1 5 15 4 14 18 31 33 41 42 45 48 53 50 45 40 33 27 26 26 24 20 17 15 14 14 12 11 10 9 9 8 8 8 8 8 8 8 11 13 16 17 18
19 14 15 10 6 4 10 11 12 10 13 5 10 28 35 38 40 42 46 50 48 45 39 32 28 27 26 23 20 19 16 13 12 12 10 9 9 8 7 7 7 7 7 9 11 14 16 18 19
9 15 5 5 3 11 4 5 18 10 11 8 21 37 36 32 31 37 45 56 57 52 43 35 31 29 28 25 22 21 18 15 15 14 12 11 10 9 8 7 6 6 6 8 11 13 13 18 17
15 15 12 15 10 7 4 14 14 8 10 14 15 34 34 30 29 31 36 47 57 52 43 35 31 30 30 26 23 22 20 18 18 17 15 14 12 10 8 6 6 5 5 7 10 9 11 14 14
14 12 9 14 5 7 9 15 18 8 10 10 16 35 35 29 27 31 37 42 52 50 41 32 30 31 30 27 24 23 21 19 19 19 18 16 13 11 9 8 6 5 5 7 8 7 8 11 12
6 14 6 5 8 7 8 11 13 11 21 16 19 36 33 28 26 31 36 43 48 43 36 33 30 28 27 26 24 22 21 21 21 20 18 17 15 13 11 9 8 6 5 6 6 7 6 9 10
7 7 3 9 9 11 7 13 15 18 17 24 30 40 37 33 29 31 35 39 42 41 38 35 33 32 30 27 25 24 22 21 20 19 19 18 16 15 14 12 10 8 7 6 5 5 4 7 7
0 13 13 10 11 6 3 12 5 9 14 42 48 43 36 32 31 30 34 39 43 42 41 37 34 31 30 27 25 24 23 21 20 19 18 17 17 17 16 14 12 11 10 7 5 4 3 3 5
Wind_Direction_850mb
349 350 64 345 50 65 70 112 288 119 77 34 86 90 111 70 48 165 147 115 352 341 336 333 347 20 20 36 26 36 49 55 50 47 55 58 54 53 58 59 60 53 49 56 62 56 54 55 54
343 34 121 75 83 76 275 274 136 186 136 111 79 75 51 72 68 132 128 77 357 345 344 340 5 31 31 37 31 40 48 60 54 48 52 60 58 65 64 61 62 60 69 59 50 60 58 51 66
340 17 78 88 103 116 173 189 152 139 142 48 101 76 88 92 120 132 111 49 359 351 344 8 21 45 42 45 46 46 54 40 56 55 51 66 64 66 66 63 70 70 60 53 50 43 57 59 61
258 107 65 78 68 203 30 152 147 124 197 266 133 71 91 124 138 128 85 42 357 355 357 20 36 36 40 47 51 59 56 61 45 58 59 77 69 69 66 69 74 72 62 56 46 48 66 56 57
254 72 59 71 3 272 108 153 139 135 118 134 195 148 93 134 133 124 97 21 1 2 8 23 23 40 36 28 29 51 45 49 37 39 62 75 75 73 68 75 73 65 65 60 46 61 63 59 52
64 69 65 127 352 354 115 158 143 169 144 130 110 117 122 147 145 142 93 4 8 12 29 15 31 39 21 24 39 39 37 37 49 55 64 71 80 87 72 75 79 73 62 57 60 62 58 55 50
114 79 132 130 116 2 149 153 156 157 114 53 117 84 139 169 162 162 165 33 20 33 34 28 35 37 30 25 25 35 50 64 61 66 70 73 76 86 84 76 77 70 67 59 58 57 51 46 43
131 94 103 137 175 225 147 139 143 146 135 143 89 155 183 186 178 180 165 103 35 36 43 46 42 38 32 26 26 40 54 66 74 74 75 76 81 76 74 77 61 61 63 59 55 53 51 48 45
120 67 143 183 157 223 157 129 137 149 147 170 169 143 164 179 180 181 178 116 37 33 41 47 38 40 35 26 29 44 60 73 76 78 79 82 82 80 66 66 67 66 63 60 56 56 53 49 47
79 99 192 177 178 201 162 158 159 151 158 194 185 180 161 173 181 181 170 146 40 37 45 54 44 44 39 35 44 56 74 80 81 84 83 83 82 78 73 68 64 63 61 63 61 58 52 47 48
100 147 166 169 172 169 146 153 175 154 230 222 214 184 172 176 179 183 181 180 74 28 50 56 44 44 43 40 52 68 80 84 85 86 86 85 85 81 81 72 67 66 67 64 60 54 47 46 46
88 91 93 118 135 151 156 154 192 208 233 277 219 198 185 183 184 189 187 194 188 66 67 59 45 53 49 48 63 73 81 89 89 93 94 90 84 81 81 77 76 72 71 64 56 48 45 45 46
87 126 94 109 127 130 150 153 229 241 231 242 198 186 190 187 187 191 193 205 199 208 142 86 223 110 69 64 77 85 92 94 98 97 96 94 89 83 80 77 74 68 67 59 51 46 44 47 48
125 107 95 101 117 119 154 222 224 236 219 211 195 188 192 199 199 203 203 205 209 209 187 222 210 177 108 76 92 96 99 103 99 102 103 99 95 85 75 67 66 63 63 57 47 44 45 47 49
117 75 43 73 133 79 120 282 236 241 200 200 191 191 195 200 208 211 216 213 218 215 216 226 218 207 163 91 100 103 102 106 111 114 110 108 104 93 79 67 60 61 61 54 44 42 43 43 47
79 62 122 294 152 164 113 269 330 211 204 199 195 198 206 211 214 210 212 213 218 222 225 232 227 219 212 172 129 122 122 120 127 124 118 115 109 101 86 70 60 59 59 52 41 40 40 39 43
17 184 189 312 202 135 160 267 301 203 201 206 203 207 212 213 213 209 209 212 222 226 231 236 232 227 216 198 163 143 135 133 142 140 132 124 113 105 93 78 60 59 57 50 38 34 34 34 38
178 157 229 215 228 118 232 261 266 231 211 213 213 216 219 219 219 214 209 209 217 223 225 229 229 222 213 201 178 157 156 158 162 150 142 136 123 114 102 86 69 62 56 48 39 33 28 25 26
142 139 176 234 180 177 233 270 265 248 233 233 227 225 226 226 218 213 211 212 217 218 224 229 230 224 211 204 189 181 178 179 169 164 161 150 139 123 107 92 80 68 62 51 47 37 28 19 8
127 132 202 297 47 155 353 274 263 227 231 230 228 225 225 223 216 212 211 214 219 223 224 225 223 217 210 203 203 212 201 198 182 179 176 161 145 129 115 101 84 73 68 54 53 46 36 22 15
150 162 174 173 116 82 344 293 266 251 237 240 237 235 239 231 217 210 210 214 215 216 222 226 223 217 216 217 223 230 226 214 202 194 183 168 151 138 127 109 95 79 68 56 56 54 45 38 37
158 175 129 129 111 215 61 271 289 246 263 237 238 230 229 222 216 218 215 213 215 213 214 217 218 219 221 224 223 221 215 227 223 210 195 184 169 151 138 119 102 81 69 67 63 60 55 45 40
193 131 131 120 102 76 269 67 269 359 265 246 234 228 219 214 217 218 219 218 214 209 214 214 215 218 220 222 223 215 218 231 231 221 208 196 185 169 152 131 114 98 84 82 81 74 67 58 54
149 84 48 54 83 355 226 145 273 216 220 255 193 205 199 202 211 218 220 215 210 207 210 213 217 218 219 220 222 217 225 230 232 226 219 207 198 187 169 146 121 102 96 91 82 73 70 66 61
106 106 24 7 8 218 346 97 252 236 221 222 209 193 187 190 199 208 209 206 205 206 209 212 216 219 218 220 221 222 227 227 215 218 217 209 208 199 188 165 134 117 98 92 85 75 71 71 65
180 165 154 185 190 205 92 225 247 206 236 241 236 200 188 194 202 207 206 203 202 205 209 214 217 216 215 219 222 224 226 221 211 213 215 215 213 207 201 180 162 141 128 110 93 80 70 74 68
192 196 148 106 13 77 205 281 291 204 241 219 186 180 190 198 203 202 198 199 200 203 209 214 215 212 213 219 222 222 220 219 213 214 216 217 218 215 207 198 180 173 147 119 107 93 80 74 66
150 161 84 2 134 237 246 276 238 205 221 200 190 189 186 188 190 189 189 191 194 201 206 208 208 210 214 218 219 217 216 215 216 215 216 218 218 217 211 204 197 187 161 148 137 116 97 86 72
142 182 102 128 165 161 177 251 220 213 191 189 196 191 185 183 180 180 181 184 190 197 205 207 206 208 208 210 213 214 216 218 219 219 219 218 218 217 211 209 205 199 188 182 169 138 118 94 78
141 189 161 159 210 234 161 264 155 182 189 184 193 188 182 180 178 178 180 184 191 198 204 206 207 209 207 207 210 212 215 220 223 225 224 221 220 219 217 213 209 207 207 202 199 169 137 106 96